Location: Nelson
(41.2830°S, 173.2830°E)
Time: 02:17:02
(UTC+13:00)

Cosmos 1869 Rocket - Pass Details

Date: 24 January 2019
Orbit: 605 x 633 km, 82.5° (Epoch: 13 October)

Event Time Altitude Azimuth Distance (km) Brightness Sun altitude
Rises 22:28:43 0° 182° (S) 2,919 7.7 -15.2°
Reaches altitude 10° 22:31:04 10° 175° (S) 2,001 6.7 -15.5°
Maximum altitude 22:35:18 44° 102° (ESE) 861 4.0 -16.1°
Enters shadow 22:36:56 30° 52° (NE) 1,104 4.3 -16.3°
